[Iaude] MPEC J39: 2024 JO [a=1.77,e=0.40,i=6.7,H=25.4]

mpec at cfa.harvard.edu mpec at cfa.harvard.edu
Fri May 3 07:37:50 EDT 2024


M.P.E.C. 2024-J39                                   Issued 2024 May 3, 11:36 UT

     The Minor Planet Electronic Circulars contain information on unusual
         minor planets, routine data on comets and natural satellites,
         and occasional editorial announcements.  They are published
    on behalf of Division F of the International Astronomical Union by the
          Minor Planet Center, Smithsonian Astrophysical Observatory,
                          Cambridge, MA 02138, U.S.A.
			  
             Prepared using the Tamkin Foundation Computer Network

                              MPC at CFA.HARVARD.EDU
            URL https://www.minorplanetcenter.net/    ISSN 1523-6714

                                    2024 JO                                     


Observations:
     K24J00O* C2024 05 01.45906615 42 31.578-09 44 23.19         21.59wXEJ039F51
     K24J00O  C2024 05 01.47031715 42 34.514-09 45 15.40         21.37wXEJ039F51
     K24J00O  C2024 05 01.48156015 42 37.464-09 46 07.35         21.29wXEJ039F51
     K24J00O  C2024 05 01.54806015 42 54.909-09 51 13.50         21.29GVEJ039F52
     K24J00O  C2024 05 01.54871215 42 55.091-09 51 16.33         21.39GVEJ039F52
     K24J00O KC2024 05 02.33542115 46 58.030-10 53 54.96         21.07GVEJ039I52
     K24J00O KC2024 05 02.33851315 46 58.883-10 54 09.83         21.04GVEJ039I52
     K24J00O KC2024 05 02.34160115 46 59.754-10 54 24.84         21.07GVEJ039I52
     K24J00O KC2024 05 02.34468815 47 00.640-10 54 39.67         21.05GVEJ039I52
     K24J00O KC2024 05 03.46192 15 53 00.18 -12 28 51.4          20.7 RVEJ039291
     K24J00O KC2024 05 03.46424 15 53 00.91 -12 29 02.5          21.3 RVEJ039291
     K24J00O KC2024 05 03.46658 15 53 01.66 -12 29 14.9          21.1 RVEJ039291

Observer details:
291 LPL/Spacewatch II.  Observer T. H. Bressi.  1.8-m f/2.7 reflector + CCD.
F51 Pan-STARRS 1, Haleakala.  Observers J. Herman, T. Lowe, P. Minguez, A.
    Schultz, I. Smith.  Measurers K. Chambers, T. de Boer, J. Fairlamb, H.
    Gao, M. Huber, C.-C. Lin, E. Magnier, Y. Ramanjooloo, R. Wainscoat, R.
    Weryk.  1.8-m Ritchey-Chretien + CCD.
F52 Pan-STARRS 2, Haleakala.  Observers J. Herman, T. Lowe, P. Minguez, A.
    Schultz, I. Smith.  Measurers K. Chambers, T. de Boer, J. Fairlamb, H.
    Gao, M. Huber, C.-C. Lin, E. Magnier, Y. Ramanjooloo, R. Wainscoat, R.
    Weryk.  1.8-m Ritchey-Chretien + CCD.
I52 Steward Observatory, Mt. Lemmon Station.  Observers V. F. Carvajal, G. J.
    Leonard.  Measurers T. Beuden, V. F. Carvajal, D. Fay, J. B. Fazekas, D.
    C. Fuls, A. R. Gibbs, A. D. Grauer, H. Groeller, J. K. Hogan, R. A.
    Kowalski, S. M. Larson, G. J. Leonard, D. Rankin, R. L. Seaman, F. C.
    Shelly, K. W. Wierzchos.  1.0-m prime focus + CCD.

Orbital elements:
2024 JO                                                  Earth MOID = 0.0576 AU
Epoch 2024 Mar. 31.0 TT = JDT 2460400.5                 MPC                     
M 334.54408              (2000.0)            P               Q                  
n   0.41714214     Peri.  203.23009     -0.29003105     +0.95288153             
a   1.7739716      Node    50.03215     -0.85884887     -0.21818541             
e   0.4032104      Incl.    6.65921     -0.42220919     -0.21074135             
P   2.36           H   25.41          G   0.15           U   8                  
Residuals in seconds of arc
240501 F51  0.1-  0.3+    240501 F52  0.0   0.0     240502 I52  0.2+  0.3+
240501 F51  0.0   0.0     240502 I52  0.0   0.3-    240503 291  0.2-  0.5-
240501 F51  0.2+  0.1-    240502 I52  0.2-  0.0     240503 291  0.0   0.4+
240501 F52  0.1-  0.1-    240502 I52  0.1-  0.0     240503 291  0.3+  0.1+

Ephemeris:
2024 JO                  a,e,i = 1.77, 0.40, 7                   q = 1.0587
Date    TT    R. A. (2000) Decl.     Delta      r    Elong.  Phase     V
2024 04 03    14 28 50.4 +05 27 58   0.2365  1.2152   152.9    22.0    23.8
...
2024 04 18    14 56 38.8 +01 20 39   0.1552  1.1498   158.3    18.8    22.6
...
2024 04 26    15 19 42.9 -03 54 38   0.1201  1.1206   161.3    16.8    21.9
...
2024 05 02    15 45 13.4 -10 25 51   0.09811 1.1019   162.7    15.8    21.4
2024 05 03    15 50 29.8 -11 48 00   0.09491 1.0990   162.7    15.8    21.4
2024 05 04    15 56 08.2 -13 15 30   0.09186 1.0963   162.6    16.0    21.3
...
2024 05 10    16 39 34.1 -23 51 37   0.07732 1.0817   157.8    20.7    21.0
...
2024 05 18    18 12 36.4 -40 00 36   0.07061 1.0676   141.5    36.2    21.3
...
2024 06 02    21 42 50.5 -49 57 12   0.09428 1.0588   115.9    59.5    22.5

A. U. Tomatic                (C) Copyright 2024 MPC           M.P.E.C. 2024-J39





More information about the Iaude mailing list